User: anonymous   Login
Location: Caltech
(34.1382°N, 118.1253°W)
Time: 05:32:27
(UTC-07:00)
Language:

Cosmos 2219 Rocket - Orbit

View from above orbital plane
View from above orbital plane
View from above satellite
View from above satellite

Ground track
Ground track

The orbit data is extracted from the following two-line orbital elements,

1 22220U 92076B   17200.38611196 +.00000146 +00000-0 +97547-4 0  9994
2 22220 071.0009 351.4710 0014452 230.1689 182.7816 14.16418396275003
Epoch (UTC): 19 July 2017 09:16:00
Eccentricity: 0.0014452
inclination: 71.0009°
perigee height: 827 km
apogee height: 848 km
right ascension of ascending node: 351.4710°
argument of perigee: 230.1689°
revolutions per day: 14.16418396
mean anomaly at epoch: 182.7816°
orbit number at epoch: 27500

The dashed part of the orbit path shows where the satellite is in the earth's shadow,  

DLR